BAW9042 KPHL-KDCA

Flight info

Callsign BAW9042
Flight time 0h 29m
Altitude 16000
Route DQO BAINS SUDOY CLIPR CLIPR3
Aircraft A20N/M-SDE2E3FGHIRWXY/LB1

Departure

Time 2026-05-05 22:17
Airport Philadelphia International Airport (KPHL)

Arrival

Time 2026-05-05 22:47
Airport Ronald Reagan Washington National Airport (KDCA)
Time Latitude Longitude Altitude Speed Heading
2026-05-05 22:02 39.87212 -75.25252 24 ft 0 kts 35°
2026-05-05 22:02 39.87212 -75.25253 24 ft 0 kts 36°
2026-05-05 22:02 39.87199 -75.25261 24 ft 2 kts 15°
2026-05-05 22:03 39.87185 -75.25265 24 ft 2 kts
2026-05-05 22:03 39.87170 -75.25262 24 ft 2 kts 343°
2026-05-05 22:03 39.87157 -75.25256 24 ft 2 kts 328°
2026-05-05 22:03 39.87145 -75.25242 24 ft 2 kts 310°
2026-05-05 22:04 39.87136 -75.25227 24 ft 2 kts 294°
2026-05-05 22:04 39.87132 -75.25208 24 ft 2 kts 277°
2026-05-05 22:04 39.87132 -75.25196 24 ft 2 kts 267°
2026-05-05 22:04 39.87134 -75.25179 24 ft 0 kts 253°
2026-05-05 22:08 39.87133 -75.25183 24 ft 2 kts 252°
2026-05-05 22:08 39.87122 -75.25226 24 ft 7 kts 251°
2026-05-05 22:08 39.87104 -75.25309 24 ft 11 kts 257°
2026-05-05 22:09 39.87082 -75.25430 24 ft 15 kts 257°
2026-05-05 22:09 39.87064 -75.25588 26 ft 18 kts 257°
2026-05-05 22:09 39.87019 -75.25760 27 ft 20 kts 230°
2026-05-05 22:09 39.86899 -75.25762 27 ft 16 kts 165°
2026-05-05 22:10 39.86776 -75.25722 27 ft 20 kts 165°
2026-05-05 22:10 39.86636 -75.25670 27 ft 20 kts 164°
2026-05-05 22:10 39.86599 -75.25514 24 ft 23 kts 77°
2026-05-05 22:10 39.86642 -75.25290 24 ft 27 kts 76°
2026-05-05 22:11 39.86694 -75.25034 24 ft 29 kts 76°
2026-05-05 22:11 39.86745 -75.24776 21 ft 29 kts 75°
2026-05-05 22:11 39.86797 -75.24517 21 ft 28 kts 75°
2026-05-05 22:11 39.86846 -75.24267 19 ft 29 kts 77°
2026-05-05 22:12 39.86895 -75.24014 17 ft 28 kts 73°
2026-05-05 22:12 39.86946 -75.23770 17 ft 26 kts 75°
2026-05-05 22:12 39.86988 -75.23557 17 ft 22 kts 76°
2026-05-05 22:12 39.87001 -75.23444 17 ft 3 kts 114°
2026-05-05 22:13 39.87000 -75.23442 17 ft 0 kts 131°
2026-05-05 22:14 39.87000 -75.23441 17 ft 0 kts 130°
2026-05-05 22:16 39.86948 -75.23408 17 ft 15 kts 170°
2026-05-05 22:16 39.86869 -75.23570 17 ft 39 kts 255°
2026-05-05 22:16 39.86741 -75.24214 21 ft 105 kts 255°
2026-05-05 22:16 39.86521 -75.25330 24 ft 146 kts 255°
2026-05-05 22:17 39.86271 -75.26674 227 ft 156 kts 250°
2026-05-05 22:17 39.86112 -75.28097 629 ft 162 kts 259°
2026-05-05 22:17 39.85668 -75.29417 1126 ft 171 kts 219°
2026-05-05 22:17 39.84698 -75.30154 1653 ft 189 kts 213°
2026-05-05 22:18 39.83659 -75.31395 2754 ft 188 kts 225°
2026-05-05 22:18 39.82884 -75.32567 3926 ft 173 kts 230°
2026-05-05 22:18 39.82116 -75.33871 4479 ft 192 kts 233°
2026-05-05 22:18 39.81319 -75.35314 5231 ft 201 kts 234°
2026-05-05 22:19 39.80524 -75.36787 6104 ft 202 kts 235°
2026-05-05 22:19 39.79725 -75.38284 6894 ft 206 kts 236°
2026-05-05 22:19 39.78916 -75.39806 7753 ft 207 kts 237°
2026-05-05 22:19 39.78120 -75.41309 8590 ft 207 kts 237°
2026-05-05 22:20 39.77306 -75.42843 9440 ft 206 kts 238°
2026-05-05 22:20 39.76512 -75.44344 10240 ft 206 kts 238°
2026-05-05 22:20 39.75704 -75.45866 10997 ft 206 kts 238°
2026-05-05 22:20 39.74899 -75.47382 11676 ft 205 kts 238°
2026-05-05 22:21 39.74085 -75.48918 11721 ft 221 kts 238°
2026-05-05 22:21 39.73125 -75.50731 11496 ft 263 kts 238°
2026-05-05 22:21 39.72030 -75.52787 11598 ft 290 kts 238°
2026-05-05 22:21 39.70845 -75.55016 11824 ft 310 kts 238°
2026-05-05 22:22 39.69568 -75.57413 11891 ft 334 kts 237°
2026-05-05 22:22 39.68245 -75.59927 11744 ft 345 kts 239°
2026-05-05 22:22 39.67367 -75.62868 11477 ft 356 kts 259°
2026-05-05 22:22 39.67146 -75.66048 11339 ft 357 kts 262°
2026-05-05 22:23 39.66718 -75.69218 11566 ft 340 kts 261°
2026-05-05 22:23 39.66346 -75.72137 11844 ft 322 kts 259°
2026-05-05 22:23 39.65993 -75.74936 11929 ft 313 kts 259°
2026-05-05 22:23 39.65676 -75.77471 11651 ft 316 kts 261°
2026-05-05 22:24 39.64987 -75.80471 11329 ft 318 kts 245°
2026-05-05 22:24 39.64150 -75.83046 11379 ft 307 kts 248°
2026-05-05 22:24 39.63339 -75.85533 11783 ft 288 kts 248°
2026-05-05 22:24 39.62586 -75.87861 11953 ft 284 kts 248°
2026-05-05 22:25 39.61794 -75.90308 11683 ft 304 kts 248°
2026-05-05 22:25 39.60959 -75.92886 11359 ft 322 kts 248°
2026-05-05 22:25 39.60071 -75.95619 11360 ft 328 kts 248°
2026-05-05 22:25 39.59184 -75.98344 11607 ft 326 kts 248°
2026-05-05 22:26 39.58307 -76.01040 11829 ft 326 kts 248°
2026-05-05 22:26 39.57430 -76.03731 11985 ft 327 kts 248°
2026-05-05 22:26 39.56536 -76.06474 12043 ft 332 kts 248°
2026-05-05 22:26 39.55632 -76.09239 11968 ft 340 kts 248°
2026-05-05 22:27 39.54697 -76.12106 11869 ft 347 kts 248°
2026-05-05 22:27 39.53754 -76.14990 11911 ft 349 kts 248°
2026-05-05 22:27 39.52803 -76.17893 12092 ft 348 kts 248°
2026-05-05 22:27 39.51867 -76.20747 12228 ft 349 kts 248°
2026-05-05 22:28 39.50918 -76.23640 12170 ft 355 kts 248°
2026-05-05 22:28 39.49935 -76.26631 11916 ft 360 kts 248°
2026-05-05 22:28 39.48965 -76.29583 11686 ft 358 kts 248°
2026-05-05 22:28 39.47996 -76.32525 11762 ft 347 kts 248°
2026-05-05 22:29 39.47077 -76.35312 12073 ft 331 kts 248°
2026-05-05 22:29 39.46189 -76.38006 12368 ft 319 kts 248°
2026-05-05 22:29 39.45326 -76.40611 12370 ft 316 kts 247°
2026-05-05 22:29 39.44111 -76.42955 12155 ft 322 kts 227°
2026-05-05 22:30 39.42244 -76.44617 11973 ft 327 kts 214°
2026-05-05 22:30 39.40329 -76.46179 11895 ft 325 kts 216°
2026-05-05 22:30 39.38481 -76.47725 11826 ft 309 kts 217°
2026-05-05 22:30 39.37211 -76.48801 11655 ft 298 kts 217°
2026-05-05 22:31 39.35017 -76.50683 10979 ft 295 kts 217°
2026-05-05 22:31 39.33336 -76.52133 10326 ft 289 kts 217°
2026-05-05 22:31 39.31753 -76.53551 10080 ft 260 kts 219°
2026-05-05 22:31 39.30297 -76.54781 10012 ft 243 kts 218°
2026-05-05 22:32 39.28914 -76.55964 10023 ft 236 kts 218°
2026-05-05 22:32 39.27536 -76.57147 10021 ft 241 kts 218°
2026-05-05 22:32 39.26119 -76.58365 10029 ft 248 kts 218°
2026-05-05 22:32 39.24654 -76.59628 10047 ft 255 kts 218°
2026-05-05 22:33 39.23175 -76.60899 9987 ft 257 kts 218°
2026-05-05 22:33 39.21677 -76.62189 9939 ft 260 kts 218°
2026-05-05 22:33 39.20173 -76.63483 10002 ft 257 kts 218°
2026-05-05 22:33 39.18697 -76.64754 10046 ft 256 kts 218°
2026-05-05 22:34 39.17200 -76.66043 10037 ft 256 kts 218°
2026-05-05 22:34 39.15880 -76.67550 9886 ft 255 kts 226°
2026-05-05 22:34 39.14571 -76.69119 9419 ft 260 kts 225°
2026-05-05 22:34 39.13251 -76.70694 8863 ft 260 kts 225°
2026-05-05 22:35 39.11937 -76.72255 8617 ft 251 kts 224°
2026-05-05 22:35 39.10689 -76.73731 8525 ft 236 kts 225°
2026-05-05 22:35 39.09497 -76.75143 8342 ft 230 kts 224°
2026-05-05 22:35 39.08310 -76.76553 8119 ft 243 kts 224°
2026-05-05 22:36 39.07023 -76.78075 7937 ft 251 kts 224°
2026-05-05 22:36 39.05757 -76.79571 7975 ft 247 kts 224°
2026-05-05 22:36 39.04507 -76.81047 8086 ft 240 kts 224°
2026-05-05 22:36 39.03283 -76.82494 8059 ft 238 kts 224°
2026-05-05 22:37 39.02068 -76.83929 7851 ft 240 kts 224°
2026-05-05 22:37 39.00837 -76.85382 7545 ft 238 kts 224°
2026-05-05 22:37 38.99634 -76.86800 7243 ft 236 kts 224°
2026-05-05 22:37 38.98417 -76.88236 6979 ft 233 kts 224°
2026-05-05 22:38 38.97382 -76.89793 6725 ft 231 kts 244°
2026-05-05 22:38 38.97114 -76.91809 6494 ft 234 kts 271°
2026-05-05 22:38 38.97291 -76.93863 6274 ft 230 kts 268°
2026-05-05 22:38 38.97388 -76.95900 6037 ft 232 kts 268°
2026-05-05 22:39 38.97468 -76.98000 5814 ft 237 kts 268°
2026-05-05 22:39 38.97545 -77.00130 5595 ft 240 kts 268°
2026-05-05 22:39 38.97691 -77.02281 5364 ft 247 kts 279°
2026-05-05 22:39 38.98550 -77.04227 5126 ft 262 kts 308°
2026-05-05 22:40 38.99999 -77.05708 4865 ft 263 kts 313°
2026-05-05 22:40 39.01360 -77.07267 4504 ft 263 kts 311°
2026-05-05 22:40 39.02705 -77.08865 4108 ft 265 kts 310°
2026-05-05 22:40 39.04013 -77.10498 3724 ft 262 kts 302°
2026-05-05 22:41 39.04739 -77.12519 3404 ft 239 kts 271°
2026-05-05 22:41 39.04540 -77.14505 3256 ft 221 kts 240°
2026-05-05 22:41 39.03680 -77.16092 3215 ft 213 kts 229°
2026-05-05 22:41 39.02749 -77.17570 3126 ft 214 kts 229°
2026-05-05 22:42 39.01803 -77.19065 3021 ft 217 kts 229°
2026-05-05 22:42 39.00835 -77.20573 2964 ft 214 kts 226°
2026-05-05 22:42 38.99617 -77.21545 2973 ft 208 kts 194°
2026-05-05 22:42 38.98200 -77.21386 3019 ft 209 kts 161°
2026-05-05 22:43 38.97094 -77.20155 3018 ft 222 kts 128°
2026-05-05 22:43 38.96433 -77.18306 3022 ft 227 kts 120°
2026-05-05 22:43 38.95842 -77.16404 3003 ft 233 kts 112°
2026-05-05 22:43 38.95799 -77.14494 3003 ft 246 kts 81°
2026-05-05 22:44 38.96354 -77.12193 3028 ft 244 kts 89°
2026-05-05 22:44 38.96141 -77.10135 3014 ft 229 kts 123°
2026-05-05 22:44 38.95152 -77.08664 3023 ft 211 kts 158°
2026-05-05 22:44 38.93808 -77.08230 3035 ft 197 kts 191°
2026-05-05 22:45 38.92411 -77.08252 2985 ft 205 kts 173°
2026-05-05 22:45 38.91102 -77.07557 2701 ft 199 kts 154°
2026-05-05 22:45 38.90119 -77.06400 1604 ft 194 kts 140°
2026-05-05 22:45 38.89349 -77.05411 1185 ft 156 kts 145°
2026-05-05 22:46 38.88607 -77.04602 804 ft 133 kts 150°
2026-05-05 22:46 38.87820 -77.04054 416 ft 125 kts 174°
2026-05-05 22:46 38.86966 -77.03930 199 ft 123 kts 181°
2026-05-05 22:46 38.86128 -77.03871 44 ft 115 kts 171°
2026-05-05 22:47 38.85395 -77.03801 24 ft 90 kts 176°
2026-05-05 22:47 38.84999 -77.03765 24 ft 33 kts 179°
2026-05-05 22:47 38.84890 -77.03801 24 ft 5 kts 231°
2026-05-05 22:47 38.84882 -77.03819 24 ft 0 kts 245°